Погода в Красном Октябре

Россия / Волгоградская область     49°04′47″N   45°18′31″E
темп.,
°C
ветер,
м/с
пор.,
м/с
влажн.,
%
обл.,
%
осадки,
мм/ч
давл.,
гПа
погр.,
м
4 марта, чт
чт400:00−2сз5107919 0.0 1018760
03:00−2зсз5107520 0.0 1019846
06:00−1зюз6117457 0.0 1019478
09:00+1зюз9145833 0.0 1018854
12:00+4зюз10154444 0.0 10171347
15:00+6зюз9144722 0.0 10151364
18:00+3юз715600 0.0 1014390
21:00+2юз816650 0.0 1014523
5 марта, пт
пт500:00+1юз816720 0.0 1012535
03:00+1юз8178134 0.0 1012625
06:00+1юз8168868 0.0 1012660
09:00+3зюз9168185 0.0 1011688
12:00+4зюз81383100 0.0 1012713
15:00+4зюз81384100 0.1 1012710
18:00+4юз51087100 0.0 1013304
21:00+3зюз51094100 0.1 1014331
6 марта, сб
сб600:00+3юз489697 0.5 1013249
03:00+3ююз499198 1.4 1013244
06:00+3юз41188100 0.5 1011517
09:00+2юз51192100 2.0 1010524
12:00+2с3596100 1.6 1010228
15:000ссв71094100 3.0 1010505
18:00−2ссв7991100 0.2 1012629
21:00−3с6982100 0.3 1015677
7 марта, вс
вс700:00−3с5778100 0.0 1017663
03:00−4ссв347571 0.0 1018339
06:00−5с23710 0.0 1020250
09:00−4зюз12580 0.0 1021400
12:000зюз46500 0.0 10211103
15:00+2зюз795028 0.0 10191597
18:00−1юз6116154 0.0 1018497
21:00−1юз7136076 0.0 1017797
8 марта, пн
пн800:00−1юз9155868 0.0 1015795
03:00−2юз9156034 0.0 1014746
06:00−1юз9156510 0.0 1012761
09:00+1зюз1115605 0.0 10121039
12:00+4зюз11155335 0.0 10111698
15:00+4зюз9145668 0.0 10101760
18:00+2з51174100 0.0 1011392
21:000зюз498775 0.0 1014246